Starlink 11722

operational
NORAD ID: 64128 Int'l Des: 2025-111 Owner: SPXS Country: US Constellation: starlink
LEOCIRCULAR

Starlink 11722について

説明を読み込み中...

リアルタイム位置

3D地球を読み込み中...

次回通過

高度履歴

Altitude vs Time

uPlot chart will show altitude changes over time

軌道要素

1 64128U 25111F 25308.51954351 .00265896 00000-0 20161-2 0 9990
2 64128 43.0001 8.2858 0000983 289.1777 70.8985 15.70768297 26909
Epoch: Nov 4, 2025 • Age: 8 hours

現在のステータス

高度 360.0 km
速度 7.69 km/s
衛星直下点 -19.53°S, 0.24°E
打ち上げ日 May 24, 2025
運用期間 0.4 years
タイプ internet

技術仕様

分類 Payload
質量 960.00 kg
乾燥質量 910.00 kg
総質量 960.00 kg
長さ 0.30 m
直径 4.10 m
スパン 29.00 m
形状 Box + pan
製造者 SPXS
バスタイプ Starlink V2MD
フェーズステータス In Orbit
所有者/国 SPXS/US

大規模コンステレーション

Loading constellations...